Location: Bacharowice
(49.9333°N, 19.5833°E)
Time: 02:23:29
(UTC+00:00)

Resurs 1-4 Rocket - Pass Details

Date: 11 May 2021
Orbit: 800 x 814 km, 98.6° (Epoch: 22 June)

Event Time Altitude Azimuth Distance (km) Brightness Sun altitude
Rises 22:54:41 0° 28° (NNE) 3,321 6.4 -21.8°
Reaches altitude 10° 22:57:57 10° 50° (NE) 2,385 5.1 -21.8°
Maximum altitude 23:01:11 16° 88° (E) 1,975 4.2 -21.7°
Enters shadow 23:03:37 12° 118° (ESE) 2,212 4.2 -21.7°
